User: anonymous   Login
Location: Unspecified
(0.0000°N, 0.0000°E)
Time: 05:25:18
(UTC+00:00)
Language:

NOSS 2-1 (E) - Orbit

View from above orbital plane
View from above orbital plane
View from above satellite
View from above satellite

Ground track
Ground track

The orbit data is extracted from the following two-line orbital elements,

1 20642U 90050E   17163.93279728 0.00000000  00000-0  00000-0 0    06
2 20642  63.3465 205.3557 0789000  28.5262 331.4738 13.41670739    09
Epoch (UTC): 12 June 2017 22:23:13
Eccentricity: 0.0789000
inclination: 63.3465°
perigee height: 513 km
apogee height: 1693 km
right ascension of ascending node: 205.3557°
argument of perigee: 28.5262°
revolutions per day: 13.41670739
mean anomaly at epoch: 331.4738°
orbit number at epoch: 0

The dashed part of the orbit path shows where the satellite is in the earth's shadow,  

DLR